sat.trackr.live / text

‹ back to catalog

STARLINK-34589

NORAD 64747 · 2025-144Z

PAYLOAD ACTIVE UNKNOWN

§ Identity

Operator
Country
US
Launch date
2025-07-02
Launch site
AFETR
Launch vehicle
Mass (kg)
RCS (m²)

Purposes: comms

External: N2YO · Heavens-Above · Gunter

§ Orbital elements

Epoch: 2026-09-20T22:35:40.879968Z

Period
93.85 min
Inclination
53.1607°
Eccentricity
0.0001039
Mean motion
15.34404755 rev/d
Perigee alt
462.0 km
Apogee alt
463.4 km
Semi-major
6,840.8 km
B*
3.9272e-4
RAAN
339.2965°
Arg perigee
83.5364°
Mean anomaly
276.5757°
Rev number
6,981

§ Raw data

STARLINK-345891 64747U 25144Z   26263.94144537  .00012917  00000+0  39272-3 0  99952 64747  53.1607 339.2965 0001039  83.5364 276.5757 15.34404755 69812

JSON: /api/v1/satellites/64747 · /tle

For live sub-satellite position, see the globe view (requires WebGL).

§ Visibility from observer

Set your observer location to see the next 7 days of passes ≥ 10°. The values pass through the URL so the page stays shareable.

No JS? Fill the form by hand. The geolocation button needs JavaScript.